Hebron, NE

1:08 AM CST on December 12, 2017 (GMT -0600)
Hebron Municipal

Weather History for KHJH - April, 2014

Change the Weather History Date:

Wednesday, April 2, 2014

  Actual Average Record
Temperature  
Mean Temperature 40 °F -  
Max Temperature 43 °F 56 °F 87 °F (2012)
Min Temperature 36 °F 34 °F 16 °F (1975)
Degree Days  
Heating Degree Days 26    
Moisture  
Dew Point 30 °F    
Average Humidity 69    
Maximum Humidity 97    
Minimum Humidity 50    
Precipitation  
Precipitation 0.03 in - - ()
Sea Level Pressure  
Sea Level Pressure 29.86 in    
Wind  
Wind Speed 11 mph (ENE)    
Max Wind Speed 18 mph    
Max Gust Speed 24 mph    
Visibility 8 miles    
Events Thunderstorm    
Averages and records for this station are not official NWS values.
T = Trace of Precipitation, MM = Missing Value Source: NWS Daily Summary

Daily Weather History Graph

Daily Weather History Graph

Search for Another Location

Airport or City:

Trip Planner

Search our weather history database for the weather conditions in past years. The results will help you decide how hot, cold, wet, or windy it might be!

Date:

Astronomy

Apr. 02, 2014 Rise Set
Actual Time 7:12 AM CDT 7:55 PM CDT
Civil Twilight 6:45 AM CDT 8:23 PM CDT
Nautical Twilight 6:12 AM CDT 8:55 PM CDT
Astronomical Twilight 5:39 AM CDT 9:29 PM CDT
Moon 8:57 AM CDT (4/2) 11:20 PM CDT (4/2)
Length of Visible Light 13h 38m
Length of Day
12h 43m
Waxing Crescent, 10% of the Moon is Illuminated
Apr 2
Waxing Crescent
Apr 7
First Quarter
Apr 15
Full
Apr 22
Last Quarter
Apr 29
New

Hourly Weather History & Observations

Time (CDT) Temp. Windchill Dew Point Humidity Pressure Visibility Wind Dir Wind Speed Gust Speed Precip Events Conditions
12:15 AM 37.4 °F 31.4 °F 21.4 °F 52% 30.00 in 10.0 mi ENE 8.1 mph - N/A   Clear
12:35 AM 37.8 °F 30.7 °F 21.0 °F 51% 29.99 in 10.0 mi ENE 10.4 mph - N/A   Clear
12:55 AM 37.9 °F 30.9 °F 21.2 °F 51% 29.98 in 10.0 mi ENE 10.4 mph - N/A   Clear
1:15 AM 37.8 °F 31.3 °F 21.2 °F 51% 29.98 in 10.0 mi ENE 9.2 mph - N/A   Clear
1:35 AM 37.9 °F 32.1 °F 21.2 °F 51% 30.00 in 10.0 mi ENE 8.1 mph - N/A   Clear
1:55 AM 38.5 °F 33.4 °F 21.2 °F 50% 30.00 in 10.0 mi East 6.9 mph - N/A   Clear
2:15 AM 38.3 °F 34.8 °F 21.7 °F 51% 30.00 in 10.0 mi NE 4.6 mph - N/A   Clear
2:35 AM 38.5 °F 33.4 °F 21.9 °F 51% 29.98 in 10.0 mi ENE 6.9 mph - N/A   Clear
2:55 AM 38.3 °F 32.5 °F 21.7 °F 51% 29.98 in 10.0 mi NE 8.1 mph - N/A   Scattered Clouds
3:15 AM 37.8 °F 30.2 °F 21.7 °F 53% 29.95 in 10.0 mi NE 11.5 mph - N/A   Mostly Cloudy
3:35 AM 37.6 °F 29.1 °F 21.7 °F 53% 29.94 in 10.0 mi ENE 13.8 mph - N/A   Mostly Cloudy
3:55 AM 37.6 °F 30.0 °F 21.7 °F 53% 29.94 in 10.0 mi NE 11.5 mph - N/A   Scattered Clouds
4:15 AM 37.4 °F 30.3 °F 21.9 °F 54% 29.94 in 10.0 mi ENE 10.4 mph - N/A   Clear
4:35 AM 37.8 °F 28.6 °F 21.7 °F 53% 29.92 in 10.0 mi ENE 16.1 mph - N/A   Scattered Clouds
4:55 AM 36.9 °F 29.6 °F 21.9 °F 55% 29.93 in 10.0 mi ENE 10.4 mph - N/A   Scattered Clouds
5:15 AM 37.0 °F 29.3 °F 21.9 °F 54% 29.93 in 10.0 mi NE 11.5 mph - N/A   Mostly Cloudy
5:35 AM 37.0 °F 29.3 °F 22.1 °F 55% 29.93 in 10.0 mi NE 11.5 mph - N/A   Overcast
5:55 AM 36.7 °F 29.4 °F 22.1 °F 56% 29.92 in 10.0 mi ENE 10.4 mph - N/A   Overcast
6:15 AM 36.7 °F 29.9 °F 22.1 °F 56% 29.91 in 10.0 mi ENE 9.2 mph - N/A   Overcast
7:35 AM 36.0 °F 27.1 °F 21.9 °F 57% 29.92 in 10.0 mi ENE 13.8 mph - N/A   Overcast
7:55 AM 36.1 °F 28.2 °F 22.1 °F 57% 29.92 in 10.0 mi NE 11.5 mph - N/A   Overcast
8:15 AM 36.5 °F 28.7 °F 22.5 °F 57% 29.92 in 10.0 mi ENE 11.5 mph 18.4 mph N/A   Overcast
8:35 AM 37.2 °F 29.1 °F 22.8 °F 56% 29.92 in 10.0 mi ENE 12.7 mph 18.4 mph N/A   Overcast
8:55 AM 37.8 °F 29.4 °F 23.4 °F 56% 29.91 in 10.0 mi ENE 13.8 mph - N/A   Overcast
9:15 AM 38.8 °F 30.0 °F 23.9 °F 55% 29.90 in 10.0 mi ENE 16.1 mph 20.7 mph N/A   Overcast
9:35 AM 39.2 °F 29.8 °F 24.3 °F 55% 29.89 in 10.0 mi ENE 18.4 mph 24.2 mph N/A   Overcast
9:55 AM 39.9 °F 31.4 °F 24.8 °F 55% 29.88 in 10.0 mi East 16.1 mph 23.0 mph N/A   Overcast
10:15 AM 40.3 °F 31.9 °F 25.2 °F 55% 29.88 in 10.0 mi East 16.1 mph - N/A   Overcast
10:35 AM 40.3 °F 31.6 °F 25.5 °F 56% 29.88 in 10.0 mi ENE 17.3 mph - N/A   Overcast
10:55 AM 41.0 °F 33.9 °F 26.2 °F 56% 29.88 in 10.0 mi ENE 12.7 mph - N/A   Overcast
11:15 AM 41.0 °F 33.1 °F 26.8 °F 57% 29.88 in 10.0 mi East 15.0 mph 19.6 mph N/A   Overcast
11:35 AM 41.0 °F 32.8 °F 27.1 °F 58% 29.89 in 10.0 mi ENE 16.1 mph 19.6 mph N/A   Overcast
11:55 AM 41.4 °F 34.0 °F 28.8 °F 61% 29.89 in 10.0 mi East 13.8 mph 19.6 mph N/A   Overcast
12:15 PM 41.4 °F 33.3 °F 29.5 °F 63% 29.88 in 10.0 mi East 16.1 mph - N/A   Overcast
12:55 PM 42.4 °F 34.4 °F 30.7 °F 63% 29.86 in 10.0 mi East 17.3 mph - 0.03 in   Overcast
1:15 PM 43.2 °F 36.2 °F 31.6 °F 64% 29.85 in 10.0 mi East 13.8 mph 19.6 mph N/A   Overcast
1:35 PM 43.2 °F 35.9 °F 32.0 °F 65% 29.85 in 10.0 mi ENE 15.0 mph 18.4 mph N/A   Overcast
1:55 PM 42.8 °F 36.6 °F 32.0 °F 66% 29.84 in 10.0 mi ENE 11.5 mph - N/A   Overcast
2:15 PM 42.8 °F 37.0 °F 33.1 °F 69% 29.83 in 10.0 mi East 10.4 mph - N/A   Overcast
2:35 PM 43.3 °F 36.8 °F 33.4 °F 68% 29.83 in 10.0 mi ENE 12.7 mph 21.9 mph N/A   Overcast
2:55 PM 43.3 °F 36.5 °F 34.2 °F 70% 29.82 in 10.0 mi East 13.8 mph 18.4 mph N/A   Overcast
3:15 PM 43.2 °F 36.6 °F 35.1 °F 73% 29.81 in 10.0 mi East 12.7 mph 19.6 mph N/A   Overcast
3:35 PM 43.0 °F 35.7 °F 35.2 °F 74% 29.81 in 10.0 mi ENE 15.0 mph 18.4 mph N/A   Overcast
3:55 PM 42.8 °F 35.8 °F 36.0 °F 77% 29.81 in 10.0 mi ENE 13.8 mph - N/A   Overcast
4:15 PM 42.8 °F 36.2 °F 36.5 °F 78% 29.80 in 10.0 mi ENE 12.7 mph - N/A   Overcast
4:35 PM 42.6 °F 36.8 °F 36.9 °F 80% 29.80 in 10.0 mi ENE 10.4 mph - N/A   Overcast
4:55 PM 42.3 °F 34.8 °F 37.2 °F 82% 29.80 in 10.0 mi ENE 15.0 mph - N/A   Overcast
5:15 PM 42.3 °F 35.5 °F 37.4 °F 83% 29.80 in 10.0 mi ENE 12.7 mph - N/A   Overcast
5:35 PM 42.3 °F 35.9 °F 37.8 °F 84% 29.79 in 7.0 mi ENE 11.5 mph - N/A   Overcast
5:55 PM 42.1 °F 35.7 °F 38.7 °F 88% 29.79 in 5.0 mi ENE 11.5 mph - N/A   Overcast
6:15 PM 41.9 °F 35.9 °F 39.0 °F 90% 29.80 in 5.0 mi ENE 10.4 mph - N/A   Overcast
6:35 PM 41.9 °F 36.3 °F 39.4 °F 91% 29.81 in 3.0 mi ENE 9.2 mph - N/A   Overcast
6:55 PM 41.5 °F 37.1 °F 39.7 °F 93% 29.81 in 1.8 mi ENE 6.9 mph - N/A   Overcast
7:15 PM 41.4 °F 36.8 °F 40.1 °F 95% 29.81 in 1.5 mi NE 6.9 mph - N/A   Light Drizzle
7:35 PM 41.4 °F 36.2 °F 40.1 °F 95% 29.81 in 1.2 mi NE 8.1 mph - N/A   Light Drizzle
7:55 PM 41.2 °F 36.0 °F 40.1 °F 96% 29.80 in 2.0 mi NNE 8.1 mph - N/A   Overcast
8:35 PM 41.4 °F 35.7 °F 40.3 °F 96% 29.76 in 2.0 mi NE 9.2 mph - N/A   Overcast
8:55 PM 41.4 °F 34.3 °F 40.3 °F 96% 29.76 in 3.0 mi NE 12.7 mph - N/A   Overcast
9:15 PM 41.2 °F 33.7 °F 40.1 °F 96% 29.78 in 4.0 mi ENE 13.8 mph - N/A   Overcast
9:35 PM 41.4 °F 35.2 °F 40.3 °F 96% 29.77 in 3.0 mi ENE 10.4 mph 16.1 mph N/A   Overcast
9:55 PM 41.2 °F 33.4 °F 40.1 °F 96% 29.77 in 3.0 mi ENE 15.0 mph 19.6 mph N/A   Overcast
10:15 PM 41.2 °F 34.1 °F 40.1 °F 96% 29.77 in 3.0 mi ENE 12.7 mph 18.4 mph N/A   Overcast
10:35 PM 41.0 °F 33.9 °F 39.9 °F 96% 29.77 in 2.0 mi ENE 12.7 mph 17.3 mph N/A   Overcast
10:55 PM 41.0 °F 33.9 °F 39.7 °F 95% 29.75 in 1.8 mi ENE 12.7 mph 18.4 mph N/A Thunderstorm Overcast
11:15 PM 41.0 °F 35.2 °F 39.9 °F 96% 29.76 in 1.2 mi ENE 9.2 mph - N/A   Overcast
11:35 PM 41.0 °F 35.8 °F 40.1 °F 97% 29.76 in 1.2 mi ENE 8.1 mph - N/A   Overcast
11:55 PM 41.0 °F 33.1 °F 40.1 °F 97% 29.70 in 1.2 mi NNE 15.0 mph - N/A Thunderstorm Overcast